Theta_e
340 343 346 348 350 350 351 352 351 346 341 344 347 347 346 338 336 333 337 342 343 342 342 342 341 340 341 342 343 345 345 344 344 342 342 342 344 343 343 348 351 354 356 356 357 360 358 357 357 357 357 356 353 348 347 346 347 348 348 353 348 345 349 351 350 349 347 342 344 343 343 345 345 343 343 345 345 346 344 350 350 354 357 358 359
345 345 347 348 348 351 352 352 359 345 346 347 348 347 349 349 335 337 341 338 342 342 342 342 342 342 341 342 343 343 343 344 343 341 339 340 340 340 349 354 355 357 361 359 360 359 359 357 356 356 356 355 355 353 348 353 349 347 349 348 354 348 347 350 351 348 342 339 338 338 340 341 342 342 340 341 344 345 344 346 349 349 352 357 359
343 344 346 346 349 352 349 348 348 348 345 344 346 349 352 353 354 353 350 339 341 343 343 342 342 344 342 341 342 342 355 353 349 350 353 351 348 341 352 356 356 355 358 360 359 359 359 358 357 357 356 357 356 353 351 349 348 345 346 345 346 348 348 351 349 347 341 342 341 338 333 334 337 337 339 339 339 342 343 343 347 348 348 351 355
340 342 343 344 345 349 347 348 349 352 350 345 345 346 349 353 352 352 355 355 346 346 350 347 350 354 354 354 355 353 354 361 359 358 358 357 355 359 359 357 356 355 357 358 359 358 358 358 358 357 356 357 355 352 350 348 348 348 347 349 347 344 345 345 349 347 345 343 335 334 334 332 328 330 333 336 338 337 339 341 344 346 347 348 350
339 341 342 342 343 345 346 348 350 349 349 346 345 346 348 351 353 351 353 356 357 357 353 353 354 351 352 353 354 352 353 353 354 353 355 355 355 355 356 360 360 358 358 357 359 357 358 359 358 358 357 356 356 352 350 349 349 350 351 351 349 346 344 344 347 348 346 345 341 338 334 331 328 330 332 332 336 336 335 337 340 344 345 346 347
340 340 341 341 341 344 345 349 349 348 348 347 346 346 346 348 351 352 351 355 358 356 354 354 351 348 347 345 343 343 343 345 345 345 347 350 354 356 357 358 358 358 357 357 357 358 356 357 358 358 357 357 356 354 352 349 348 348 350 350 349 349 347 344 343 349 349 349 345 343 340 334 332 335 332 326 335 338 337 335 336 342 344 346 346
340 341 340 340 340 342 343 346 348 348 348 349 349 347 347 347 350 354 352 353 359 356 355 355 350 348 347 346 344 343 342 343 345 347 346 350 354 355 355 356 356 355 356 356 356 357 356 356 357 357 357 356 357 354 352 350 348 348 350 350 349 351 348 344 344 344 346 347 349 348 345 343 341 336 331 331 328 331 336 337 335 336 341 344 345
338 338 336 339 340 341 342 346 348 348 349 349 348 348 347 347 348 352 354 356 356 359 356 355 351 350 349 348 349 346 346 346 348 349 351 354 355 356 356 357 357 356 355 356 357 357 357 356 356 356 356 356 356 354 353 352 350 349 350 351 351 351 349 346 345 345 342 343 348 346 346 345 343 340 338 334 331 328 331 335 338 337 337 339 343
337 335 334 339 341 341 343 345 348 348 348 348 348 348 347 347 348 348 350 353 354 360 358 357 356 353 352 351 349 352 351 350 352 354 354 355 354 355 356 356 356 356 355 355 356 358 360 358 356 355 355 355 357 355 354 352 350 347 347 349 349 349 349 349 347 345 345 344 345 345 345 343 342 340 340 338 332 328 328 329 331 336 338 340 343
336 335 336 341 343 343 345 345 345 347 348 349 348 349 349 349 348 348 349 351 353 354 359 358 357 358 353 352 351 350 352 352 352 351 351 353 353 354 354 353 354 353 353 354 353 354 356 359 358 356 355 355 358 355 354 352 350 348 347 348 350 349 350 350 348 347 347 347 347 346 344 343 343 341 339 337 336 334 330 331 334 334 331 335 344
338 338 339 341 344 345 345 344 344 348 348 348 347 348 348 348 347 347 348 351 354 353 355 356 357 357 355 354 352 351 351 351 350 350 351 351 351 353 353 352 352 352 352 353 352 353 353 355 357 358 357 358 357 355 353 352 351 349 348 347 350 349 349 349 350 349 349 348 347 346 344 343 342 340 339 340 338 335 334 333 335 336 332 336 343
338 339 340 342 343 343 343 341 344 347 347 345 345 346 346 346 346 346 346 346 350 355 354 354 356 358 357 356 354 353 352 352 351 350 350 350 351 352 353 353 353 353 353 353 354 354 353 354 356 357 357 356 354 354 354 352 352 350 348 346 347 349 350 351 349 348 349 348 348 348 346 346 345 343 343 342 341 340 337 335 334 336 339 342 345
337 338 340 342 342 342 341 341 341 341 342 342 340 342 344 345 346 345 344 345 348 355 356 355 355 356 358 357 357 356 354 353 353 352 352 352 352 352 352 352 352 352 353 353 354 357 358 356 355 354 355 356 355 353 352 352 351 349 348 346 348 348 350 350 349 348 348 348 348 349 349 348 346 346 345 344 343 342 340 336 336 337 335 339 343
337 338 339 338 339 339 339 339 341 341 340 339 339 344 340 341 342 341 339 341 346 353 357 357 358 358 358 358 358 358 356 356 355 354 354 354 354 354 354 354 353 353 354 354 355 356 359 359 359 356 355 354 355 354 352 351 351 349 348 347 347 349 351 351 351 351 350 350 350 348 348 348 348 347 345 343 342 340 338 337 337 341 337 338 344
335 335 336 334 333 335 333 338 339 339 339 338 338 339 339 338 338 341 340 340 342 345 351 356 357 358 358 358 356 355 354 354 355 356 355 354 355 355 355 356 355 355 355 356 357 356 357 358 358 358 357 355 354 354 355 353 351 351 350 349 349 348 349 351 351 351 351 350 350 350 349 348 347 346 345 344 343 341 339 339 337 335 336 339 341
330 332 333 332 333 333 333 335 335 336 337 339 338 338 342 344 347 348 347 348 351 353 352 356 356 358 356 356 357 357 357 355 353 354 355 356 356 355 355 356 356 357 356 357 357 357 357 357 357 357 357 356 355 354 353 352 351 350 350 350 348 351 349 349 350 351 351 351 351 351 350 350 350 348 347 346 344 344 345 347 341 337 334 331 338
328 331 331 330 331 333 333 331 333 340 336 334 337 340 340 340 339 339 341 343 343 349 351 351 349 348 347 348 350 352 352 353 354 354 355 356 357 357 357 356 357 357 357 358 357 357 357 357 357 356 356 355 354 354 353 352 352 351 350 349 348 349 350 349 350 350 351 351 351 351 351 350 350 350 349 349 347 348 346 345 347 340 338 334 333
329 330 331 332 330 332 334 336 336 336 335 335 338 340 341 342 342 342 344 343 344 346 347 348 348 347 347 348 348 348 348 349 348 347 351 354 356 356 356 356 355 355 350 355 355 356 356 359 357 356 356 355 354 354 353 353 352 351 351 351 351 351 349 349 351 351 351 351 352 352 352 351 351 350 349 349 347 346 344 343 345 345 342 337 336
328 329 329 331 333 333 332 332 333 334 335 335 337 339 341 344 346 343 342 343 344 345 346 347 347 348 349 349 348 348 349 349 350 351 352 352 354 356 356 356 358 357 357 354 353 355 356 356 356 356 355 355 354 354 353 353 353 351 351 350 351 352 351 349 350 352 352 352 352 351 351 351 351 349 349 348 349 348 345 345 346 346 345 341 339
327 328 328 329 330 330 332 332 333 335 337 339 339 340 341 342 341 342 341 341 342 343 345 345 345 346 347 349 350 351 351 350 350 350 351 352 354 355 355 355 356 357 356 356 354 355 355 355 355 355 355 355 354 354 354 353 353 352 351 350 350 350 351 351 351 351 352 351 351 350 351 350 350 350 348 348 349 349 347 346 348 347 345 342 342
327 327 327 328 329 331 333 334 334 336 342 339 339 340 341 340 339 340 339 339 340 341 341 341 343 344 346 346 347 348 348 349 350 351 352 353 354 355 356 357 358 357 356 355 354 353 353 354 354 354 352 352 354 353 354 354 352 351 351 350 350 349 349 350 351 351 352 351 350 349 350 351 350 345 345 347 348 348 348 349 351 349 345 344 342
326 327 329 329 330 333 333 334 335 337 337 336 339 340 339 338 338 338 338 338 339 340 340 341 343 345 345 346 347 348 349 350 351 351 352 352 352 353 354 356 356 355 354 354 353 353 354 354 352 349 349 351 352 353 353 352 352 351 350 351 350 348 348 349 351 351 352 353 351 349 349 349 348 345 346 346 346 345 347 351 352 351 348 348 346
329 329 330 330 331 333 333 333 335 337 336 337 337 338 339 338 339 338 338 338 339 340 342 344 344 344 344 345 347 347 349 349 349 349 349 350 351 352 354 354 355 355 355 353 353 354 355 354 351 349 349 349 352 349 347 349 351 351 350 349 350 349 348 348 349 351 352 353 352 351 349 349 348 346 346 347 347 346 347 350 351 352 349 350 349
332 332 332 331 333 334 333 333 335 335 334 335 336 337 340 340 339 337 337 338 340 342 343 342 342 343 344 345 346 347 347 347 347 347 347 348 350 351 353 353 354 355 355 355 354 354 353 351 351 350 349 350 350 349 348 347 349 351 348 348 348 349 349 349 349 350 351 352 352 351 351 350 348 346 345 345 345 346 347 352 353 352 350 350 350
331 332 332 332 332 332 331 332 332 334 334 335 336 338 338 339 338 337 338 340 340 341 341 341 342 342 342 343 344 345 345 345 346 346 346 346 347 348 351 353 353 353 353 353 354 354 352 351 350 350 351 351 351 347 346 346 349 351 349 348 348 349 349 350 350 351 357 352 352 351 352 352 349 346 346 344 345 346 349 353 352 351 349 350 350
329 330 329 328 330 333 331 332 333 335 335 336 336 337 337 336 336 338 337 338 338 340 340 340 340 340 341 342 343 344 344 344 344 344 344 344 345 347 349 350 351 351 352 352 352 352 353 351 350 350 351 351 349 347 346 346 348 351 351 349 349 349 349 349 351 352 352 353 353 352 352 352 351 347 345 345 346 347 350 353 351 350 349 349 348
329 329 328 328 329 332 332 332 334 335 336 335 335 336 336 335 335 336 337 338 339 339 338 338 339 340 341 341 342 342 343 343 344 344 344 345 346 347 347 348 350 351 351 351 352 352 353 353 352 351 351 350 349 348 347 347 348 349 349 349 348 348 349 349 350 352 353 354 354 353 353 353 352 349 346 345 347 348 350 352 352 350 349 348 347
328 327 327 328 329 331 332 333 334 335 335 335 335 335 335 334 334 335 337 338 340 339 338 338 338 339 339 340 341 341 342 343 345 346 346 346 347 346 346 348 349 349 349 350 350 351 351 352 351 351 350 350 348 347 347 348 348 349 349 348 349 349 348 349 350 352 353 353 354 354 354 354 354 353 347 346 346 348 352 351 352 351 349 347 346
326 327 327 328 329 330 332 333 333 334 333 333 334 334 334 335 336 337 337 337 338 336 336 337 338 338 338 339 340 341 342 344 345 345 346 346 346 346 346 347 347 348 349 350 351 351 349 348 348 349 350 350 348 347 348 348 348 348 349 348 349 349 349 349 349 350 352 353 354 355 355 355 357 362 362 357 355 356 352 351 351 352 350 348 346
325 325 326 327 328 329 331 332 331 331 331 331 332 332 334 335 336 336 335 336 335 335 335 336 336 337 338 339 339 340 341 342 343 343 344 345 345 346 346 345 345 346 346 348 349 350 350 350 350 350 350 349 348 347 352 353 354 350 348 348 348 348 349 349 349 350 352 353 354 355 357 365 364 366 365 363 361 361 363 356 352 352 350 348 346
322 320 319 322 326 329 330 330 330 329 330 329 330 332 333 333 333 333 333 334 334 335 335 335 336 337 338 338 338 339 340 341 342 343 344 344 344 345 344 343 343 343 344 346 347 347 346 347 347 347 348 349 349 349 351 341 342 345 352 348 348 348 349 349 350 351 351 353 353 354 355 362 363 364 365 364 363 361 364 364 363 362 359 349 346
320 320 321 324 327 328 327 327 328 329 330 330 331 331 331 331 331 331 333 334 334 334 335 336 336 336 337 337 338 339 339 340 341 342 343 344 344 342 341 341 341 341 343 344 345 345 345 345 345 346 347 348 349 353 341 340 341 339 347 351 349 348 349 348 349 351 353 353 353 353 354 356 359 360 361 360 363 364 363 365 364 363 362 360 356
319 321 325 326 325 324 325 328 328 330 330 330 329 328 328 329 330 331 332 332 334 335 335 335 335 335 336 337 338 338 339 340 341 342 343 343 341 340 339 338 338 339 340 341 342 343 343 344 345 345 347 349 349 345 338 337 338 337 338 350 351 350 349 349 350 351 353 353 352 352 351 353 357 365 363 359 357 360 361 356 357 360 360 358 349
322 323 325 324 326 327 329 329 328 327 328 328 330 329 329 330 331 332 333 334 333 333 333 333 334 335 336 337 338 338 339 339 340 341 340 340 339 338 338 338 338 338 338 339 340 341 343 343 344 345 347 349 349 348 337 335 334 335 336 340 348 351 351 350 350 352 353 353 351 350 350 351 353 353 354 356 357 356 353 353 352 352 352 355 356
319 320 322 323 324 324 324 324 325 327 328 330 330 331 332 331 332 332 332 332 332 332 332 334 334 335 336 337 337 338 338 339 340 340 339 338 337 337 337 337 337 337 336 337 338 339 341 344 345 347 348 349 351 344 336 333 331 331 334 339 347 350 349 350 352 352 353 352 351 350 350 351 351 350 355 356 353 352 349 348 347 347 350 352 351
320 320 320 322 323 323 323 324 329 333 333 330 328 328 329 331 332 332 332 332 332 332 333 334 334 335 336 336 338 338 338 338 338 338 337 337 337 337 337 337 339 338 338 339 339 340 340 342 344 345 346 347 350 339 334 333 331 330 332 343 346 348 349 349 349 350 351 351 350 350 350 350 348 348 351 347 350 352 349 343 343 343 343 342 344
323 325 324 324 326 326 326 331 331 329 326 324 328 331 331 331 330 331 331 331 332 332 333 334 336 335 336 337 338 337 337 337 338 338 337 337 337 337 338 339 338 338 338 338 338 338 339 340 342 344 344 345 347 340 332 329 328 328 332 342 345 347 349 349 348 348 348 349 349 350 350 348 348 348 348 339 341 351 346 343 341 340 339 337 332
323 325 325 326 326 328 329 328 324 327 328 330 331 330 329 329 330 331 331 332 332 332 334 335 335 336 337 338 338 338 337 338 338 337 337 338 338 338 338 340 339 339 339 339 339 339 340 342 342 343 345 345 346 345 332 327 325 326 336 342 344 345 346 347 347 347 347 348 350 353 354 348 348 349 341 335 336 350 346 342 341 337 334 332 329
324 322 323 324 326 330 331 330 330 330 329 330 331 330 330 330 332 332 332 332 332 333 334 335 335 337 338 338 338 339 338 338 337 337 337 337 337 337 339 340 340 340 340 340 341 340 340 341 342 343 347 345 345 344 332 327 325 324 331 342 344 343 343 345 346 346 347 347 349 354 356 352 349 346 335 334 333 352 344 342 340 336 333 331 327
324 327 327 329 332 330 329 328 328 329 331 331 332 332 333 333 333 332 331 332 333 334 335 336 336 337 337 337 338 339 339 338 337 337 337 337 338 338 338 339 340 339 339 340 340 340 339 339 341 342 343 344 345 345 343 327 322 321 326 342 343 342 340 343 345 345 345 346 348 349 350 341 336 335 331 329 330 339 342 342 339 336 333 330 327
328 331 338 330 330 331 330 330 330 331 332 333 333 331 332 332 333 331 331 332 334 335 335 336 336 336 336 336 337 337 337 337 338 337 338 338 339 338 338 338 338 338 338 339 339 339 339 339 340 341 341 341 343 344 345 329 321 320 323 336 342 342 341 342 343 344 344 345 345 346 347 339 330 330 327 323 324 328 340 341 338 336 336 332 328
335 338 335 330 331 330 330 331 331 332 334 333 331 331 332 331 330 330 332 334 334 335 335 336 336 336 336 336 336 337 338 338 338 338 337 337 338 338 338 337 337 338 337 337 337 338 337 338 339 341 341 340 342 346 345 332 323 317 318 326 341 343 343 343 342 343 344 344 345 344 345 339 327 327 325 320 320 323 330 341 338 329 324 323 327
327 328 335 335 328 329 330 330 332 333 333 333 331 330 331 331 330 332 334 334 335 336 336 335 336 336 336 336 336 336 337 338 337 337 337 337 338 336 335 336 336 336 335 335 335 336 336 336 337 339 341 342 343 345 341 343 324 316 316 319 328 339 334 344 343 342 342 344 346 345 345 338 324 323 319 318 318 321 330 336 321 315 318 323 330
328 330 333 335 328 329 329 330 332 332 332 331 330 330 331 331 331 333 334 335 335 335 335 335 336 335 335 335 337 338 337 337 337 337 338 337 336 335 334 334 335 335 334 334 335 335 335 335 335 337 340 342 344 345 344 341 332 317 315 316 319 325 329 340 344 343 343 343 343 344 342 326 319 315 317 318 318 323 329 313 313 317 322 330 328
326 328 331 331 328 329 329 330 331 331 331 331 331 330 331 331 332 334 334 334 334 334 334 334 334 334 334 335 335 336 336 336 337 337 336 336 335 335 334 334 334 333 333 333 334 335 335 335 336 338 340 342 343 343 344 341 333 327 316 315 317 320 323 324 341 343 343 342 335 325 322 318 313 311 315 317 317 319 313 313 316 322 333 326 325
328 328 330 331 329 329 328 329 330 331 332 333 333 333 331 332 333 334 334 333 333 332 332 333 333 333 333 334 333 334 335 336 336 336 336 336 335 334 333 332 332 333 333 334 335 335 335 336 337 338 339 340 341 341 341 341 343 343 330 317 317 319 334 331 342 340 340 324 317 313 311 311 313 318 324 326 323 321 320 324 327 331 325 324 323
327 329 332 330 328 328 328 329 329 331 331 332 332 333 333 333 333 333 333 333 332 332 332 332 331 332 332 333 332 333 335 336 335 336 335 334 335 334 332 331 330 330 330 333 335 336 335 335 335 337 339 339 340 340 340 339 338 337 336 332 327 322 333 337 336 327 324 320 320 322 323 321 322 323 322 322 323 326 328 328 325 324 324 323 323
328 329 330 328 327 326 328 329 329 330 331 331 332 332 332 332 333 333 333 332 332 332 331 330 330 331 332 333 333 339 338 334 334 334 333 333 333 332 328 327 327 327 326 328 330 332 335 336 335 336 338 338 338 339 338 336 334 334 332 329 328 328 329 326 323 324 324 326 327 326 322 328 327 326 327 327 328 328 327 326 324 323 322 324 326
326 328 329 326 327 328 328 328 328 329 330 330 330 331 332 331 332 333 332 331 331 332 331 329 330 331 331 333 334 334 333 333 333 333 333 332 330 329 325 324 325 326 325 320 321 323 330 335 336 335 336 336 338 337 337 328 332 323 329 329 329 328 326 325 326 319 327 327 326 327 326 326 326 325 325 324 323 323 323 323 322 322 322 322 320
326 327 326 326 328 327 327 327 327 328 328 328 329 329 330 331 331 332 332 330 331 330 329 329 329 330 330 331 332 332 332 333 332 333 333 333 331 321 318 318 318 321 313 305 304 316 319 320 330 336 333 336 338 339 323 315 313 311 312 315 316 314 314 321 317 317 324 324 324 324 324 324 323 322 321 321 321 321 320 321 321 322 320 319 319
326 325 324 324 325 328 327 327 327 328 327 328 328 328 328 330 330 330 330 329 327 328 328 327 328 328 329 330 332 332 332 332 332 333 333 332 332 328 304 303 309 313 307 299 297 298 301 309 323 333 324 314 318 310 308 310 309 305 303 303 305 306 307 308 312 322 324 322 321 321 322 322 322 321 321 320 321 320 320 320 319 319 319 319 319
Wind_Speed
7 6 6 6 8 5 4 4 3 3 5 4 4 4 6 8 7 10 9 10 10 9 8 8 8 7 6 8 10 10 9 8 8 8 7 8 9 9 8 7 6 7 7 8 8 8 7 6 6 5 5 5 5 5 4 5 4 5 4 4 5 4 3 3 3 3 1 4 3 4 5 4 5 7 9 9 8 8 6 7 8 7 8 8 8
5 6 7 6 4 4 4 3 3 4 1 3 5 4 5 4 7 6 5 8 9 11 11 10 9 11 11 11 10 9 8 8 8 6 7 8 8 8 7 6 6 7 6 6 6 7 6 6 6 6 6 6 6 4 4 4 4 4 3 3 3 5 3 3 3 1 1 2 3 5 6 6 5 6 8 8 9 8 8 8 8 8 9 9 7
7 7 3 3 3 4 3 3 3 2 4 5 3 6 4 5 5 4 4 8 8 9 8 9 8 6 7 6 8 6 2 4 5 5 4 6 5 6 7 6 6 6 5 6 6 6 7 6 6 6 6 6 5 5 4 5 5 6 6 5 3 2 3 2 3 4 3 1 1 1 4 4 6 4 2 7 9 10 9 9 9 9 11 10 9
7 6 6 4 3 3 3 3 3 1 3 4 3 4 5 5 4 6 4 4 7 7 7 5 4 1 1 1 0 2 2 1 1 2 3 3 5 2 2 4 6 6 6 6 5 6 6 7 6 6 7 6 6 6 6 6 4 5 5 5 4 3 2 3 4 4 4 2 3 4 3 2 4 4 3 5 3 8 10 11 9 10 11 10 7
8 5 5 4 4 4 4 4 3 3 3 3 4 5 3 5 5 6 7 5 4 4 5 5 4 3 3 3 3 1 2 2 2 4 4 4 3 3 5 4 4 4 5 6 6 7 6 6 6 7 6 6 5 6 6 7 6 5 7 6 6 5 5 3 3 4 5 5 4 2 3 1 3 4 2 6 3 2 5 9 9 9 9 8 8
9 9 8 7 6 4 3 3 4 4 4 3 3 4 5 5 5 5 5 5 6 6 7 6 6 7 5 5 4 3 5 4 7 8 7 7 7 4 4 6 6 5 5 5 6 5 6 6 6 6 7 6 6 6 6 6 6 6 6 6 6 5 5 4 4 3 5 5 6 6 5 3 3 3 1 4 5 3 4 3 8 11 11 11 10
7 7 6 6 6 5 5 5 5 5 5 4 3 3 3 5 6 6 6 6 6 6 7 6 6 5 7 8 8 8 8 7 5 5 6 7 6 6 6 5 6 7 6 6 6 6 6 6 7 7 8 7 7 6 6 7 7 6 5 6 7 6 5 5 7 7 3 4 5 6 6 5 6 5 6 1 4 6 2 1 3 7 8 9 10
9 9 8 9 9 8 8 8 6 7 5 4 4 3 3 4 4 6 5 6 6 7 8 8 8 8 7 7 8 8 9 9 7 7 6 5 6 7 6 6 5 5 6 6 6 7 7 7 7 7 8 8 7 7 8 7 7 6 5 6 7 6 7 7 7 6 6 4 4 5 5 4 4 5 6 6 4 3 7 5 1 0 2 2 5
11 9 8 9 10 9 8 7 7 6 5 6 6 5 5 4 5 4 5 6 6 7 9 9 8 9 8 7 7 7 7 7 5 4 5 5 7 6 6 6 6 6 6 6 6 7 7 7 7 8 8 9 8 8 8 8 8 7 7 6 7 7 6 7 6 7 6 7 4 4 4 5 5 3 5 5 4 3 6 4 6 2 3 3 5
9 10 8 8 8 8 8 7 6 7 6 5 5 4 3 3 4 5 5 5 5 6 7 8 9 7 7 7 8 7 5 5 4 5 5 4 7 7 6 6 6 6 7 7 7 7 7 7 8 9 10 9 9 9 9 9 8 7 8 8 7 8 7 7 8 7 7 7 6 5 4 3 3 3 4 4 4 5 7 7 5 5 3 3 4
8 7 7 7 7 7 6 7 7 5 4 5 5 5 4 4 4 5 6 4 5 7 7 8 8 7 7 7 8 8 6 5 5 6 6 5 7 7 6 6 6 7 7 7 8 8 8 8 9 9 9 9 9 9 9 9 9 8 8 7 7 8 7 8 8 8 7 7 7 6 7 7 6 5 4 4 3 3 3 5 5 1 2 2 2
7 7 7 6 4 5 5 6 5 6 5 5 4 3 3 3 4 5 4 4 4 5 7 8 7 7 7 6 7 7 5 5 7 8 7 8 8 8 6 6 6 7 7 7 8 9 9 9 9 9 9 9 10 9 9 9 8 8 8 7 7 7 7 8 8 8 9 7 8 7 7 7 6 6 6 5 5 6 5 5 5 2 2 0 1
7 7 6 5 6 6 6 5 4 4 6 5 5 5 5 4 5 6 6 4 4 4 5 6 6 6 6 6 6 5 6 7 8 9 8 8 8 8 7 7 7 7 8 8 9 10 9 9 9 9 9 9 9 8 8 9 8 8 8 8 8 8 8 9 8 9 10 9 8 8 7 7 7 6 6 6 6 6 6 6 3 3 3 2 1
8 7 7 6 7 6 6 5 5 5 5 4 5 5 4 4 4 4 5 2 2 2 3 4 6 6 5 6 7 6 6 7 7 8 9 8 8 9 9 9 8 9 9 9 9 9 9 9 9 9 9 8 7 8 8 8 8 9 9 9 9 8 7 8 10 10 9 10 8 7 7 8 7 6 6 6 7 6 5 6 4 1 1 3 0
6 6 7 7 5 4 5 5 5 5 5 4 3 4 3 3 3 4 4 3 3 5 5 5 5 5 5 5 5 5 6 6 7 7 8 8 8 9 10 9 9 9 10 10 9 9 10 9 10 10 10 10 9 9 9 9 8 8 8 9 9 8 8 9 9 10 10 10 9 8 8 7 7 6 5 6 7 7 7 7 6 3 1 0 1
6 6 5 4 4 4 4 4 4 4 3 1 1 1 1 1 2 2 0 1 1 0 1 3 3 2 3 3 5 6 6 6 7 7 8 9 10 10 10 10 10 10 9 9 9 9 10 10 10 11 10 10 10 10 11 10 10 9 9 9 10 8 8 9 9 10 11 11 10 9 8 8 7 7 6 6 6 6 6 4 4 6 7 4 1
5 6 6 5 4 4 5 4 2 3 3 4 4 3 4 4 4 4 3 4 6 6 5 3 2 1 2 3 3 4 5 6 7 8 9 8 8 7 6 8 9 8 9 9 9 9 9 10 10 10 11 10 11 11 11 11 10 10 9 9 10 9 8 9 8 9 10 10 8 10 9 8 8 7 7 7 6 6 6 6 6 7 8 7 6
6 6 6 6 6 6 4 2 2 4 4 4 4 4 4 4 4 4 4 5 4 4 4 3 4 4 4 5 5 4 4 4 4 4 4 6 7 7 8 8 8 9 6 9 9 9 9 10 11 11 11 11 12 11 11 12 11 10 10 10 10 9 9 8 8 9 10 9 9 9 8 8 8 7 7 7 6 7 7 6 6 6 7 8 7
6 6 6 2 1 2 4 6 5 4 3 4 4 4 5 5 4 5 4 4 4 4 4 5 4 4 4 5 5 5 4 5 5 6 5 6 7 7 7 7 8 7 8 9 10 12 10 10 11 12 11 11 12 12 12 11 11 10 10 9 9 8 9 9 8 9 9 8 9 9 9 8 8 8 8 7 6 7 7 6 5 4 5 4 5
5 3 3 4 5 5 5 5 5 4 4 3 3 3 4 3 4 4 3 3 3 4 4 5 5 4 5 5 5 5 5 5 6 7 8 8 8 8 8 8 9 8 8 9 9 9 10 10 10 11 12 11 11 12 12 12 11 11 10 10 10 9 10 10 9 9 8 8 9 10 9 8 7 7 5 5 6 7 7 7 7 8 7 7 8
4 5 4 5 5 5 4 4 4 4 3 3 4 4 3 4 4 3 4 5 6 5 4 4 4 5 6 7 7 6 8 7 6 7 8 9 8 8 8 8 7 7 6 7 8 9 10 10 10 10 10 11 11 11 11 10 10 11 10 10 10 10 11 11 10 11 10 10 9 10 10 9 4 8 4 5 5 5 6 7 6 6 6 6 7
6 5 5 5 4 4 3 3 3 4 3 4 3 4 3 3 3 4 4 4 5 6 5 6 5 5 6 7 7 7 7 7 7 7 8 9 9 9 9 8 8 7 6 7 8 8 9 11 11 10 10 10 10 9 8 8 10 10 10 9 9 11 11 12 11 11 11 10 9 10 10 8 8 11 10 7 4 2 9 5 6 7 7 7 7
6 6 6 5 5 4 4 4 4 3 2 2 1 1 1 1 3 3 4 5 5 6 6 5 6 7 7 7 7 7 7 7 8 7 8 9 9 9 8 8 8 8 6 7 8 9 9 9 10 10 10 9 7 2 3 6 9 9 7 8 9 11 12 13 13 13 13 11 11 10 9 7 6 8 8 8 8 8 8 8 8 7 8 8 7
5 4 4 4 4 4 4 4 4 4 2 1 1 2 4 4 4 4 5 6 6 6 6 5 6 7 8 7 7 7 8 8 8 8 8 8 9 8 7 8 8 7 8 7 7 9 9 9 9 9 10 10 11 7 8 9 12 9 8 11 11 12 13 14 14 14 14 13 13 12 11 9 9 10 9 9 8 10 10 9 8 8 7 8 7
5 5 4 4 4 4 3 3 3 3 3 4 4 5 5 6 6 6 6 6 6 5 5 6 6 8 8 7 8 7 8 8 9 8 9 8 8 8 7 8 8 8 9 8 7 7 9 9 9 10 10 9 8 10 13 15 13 9 11 13 13 13 13 14 14 15 14 14 14 14 13 10 10 11 10 10 10 11 10 9 8 7 7 7 6
5 5 5 6 7 5 4 5 5 5 6 6 7 7 7 7 7 6 6 6 6 5 5 6 6 7 8 9 8 7 8 9 9 9 9 9 8 7 8 7 7 9 9 8 8 7 8 9 9 10 11 10 8 10 12 12 9 7 7 10 10 10 11 12 12 13 14 13 13 14 13 12 11 12 11 11 11 13 11 10 10 8 7 6 8
8 8 8 6 3 4 7 7 7 7 7 8 8 8 7 7 7 6 6 5 6 6 6 6 7 7 7 8 8 8 8 8 9 9 9 8 8 8 7 8 7 8 9 9 9 9 8 9 10 10 11 11 11 11 11 12 13 12 12 10 10 11 12 12 12 13 13 13 13 13 13 12 12 11 12 12 12 11 11 11 11 10 8 8 8
6 6 5 6 7 7 7 8 8 8 9 8 7 7 7 7 7 6 5 5 6 6 7 7 7 7 8 9 8 8 8 8 8 8 9 9 9 8 7 7 7 8 9 10 10 10 9 8 8 9 9 9 9 11 12 12 11 11 12 13 13 14 15 14 13 13 12 13 14 14 13 12 12 11 11 11 11 11 10 11 11 10 9 9 9
6 7 7 7 8 8 8 8 9 9 9 8 6 6 4 4 4 5 5 7 7 6 7 8 7 8 8 8 8 7 7 8 8 8 9 9 9 8 7 7 6 8 9 9 10 9 9 9 9 10 10 10 10 11 10 11 12 13 13 13 13 14 13 13 13 13 12 13 13 13 12 12 12 13 17 15 13 13 11 11 10 10 11 11 9
8 9 9 8 7 6 8 10 10 9 8 5 4 4 4 5 6 6 6 7 6 7 7 7 8 8 8 8 8 8 8 8 9 9 9 9 9 8 7 7 7 8 9 9 10 10 9 9 10 10 10 10 10 10 13 19 16 12 12 11 12 13 13 13 13 13 12 12 13 12 11 17 19 19 18 19 19 20 19 14 12 11 11 11 11
8 8 7 6 7 9 10 11 9 5 4 4 4 5 5 5 5 6 7 7 4 6 7 7 8 8 8 8 8 8 8 9 9 9 9 8 8 7 7 8 9 9 10 10 10 10 10 9 10 10 11 11 11 11 18 17 18 21 13 11 12 12 12 13 12 12 12 13 12 12 11 14 17 17 15 20 19 21 21 20 20 20 16 14 12
8 8 7 7 7 7 5 4 3 3 4 5 5 5 4 5 7 7 7 6 5 6 7 8 8 8 8 9 9 9 9 10 9 9 9 8 7 7 9 10 10 10 10 9 10 11 10 10 9 10 11 12 11 16 17 17 18 19 19 13 11 12 11 12 12 12 11 11 11 10 9 9 11 12 11 14 17 23 24 23 22 21 21 20 17
8 5 2 1 1 3 4 4 4 5 6 6 5 4 6 7 7 8 5 4 6 6 7 7 8 8 9 9 9 9 10 10 9 9 8 8 8 9 10 11 11 10 9 10 11 11 11 10 10 10 12 12 12 15 16 17 17 17 19 19 12 12 11 11 11 12 12 10 9 9 9 9 9 16 14 13 13 16 22 25 22 23 21 19 17
2 4 5 4 3 4 6 7 7 6 5 5 5 7 8 7 6 4 4 5 5 7 7 8 8 8 8 8 9 9 10 9 8 8 8 9 9 10 10 10 10 9 10 10 11 12 11 11 10 11 11 11 12 14 17 18 18 18 18 17 14 13 11 11 11 11 11 11 10 10 11 11 9 7 7 11 13 13 12 10 6 5 7 12 16
4 3 3 4 6 5 4 4 5 5 4 5 7 6 4 4 4 5 5 6 6 7 7 7 8 8 8 8 9 9 8 8 9 9 9 9 10 10 11 10 9 10 10 11 11 11 11 11 11 10 11 12 11 15 17 17 17 19 20 18 13 13 12 11 11 11 11 11 10 11 13 13 12 13 14 14 12 11 12 12 12 9 6 8 8
4 3 3 3 4 5 6 6 5 4 6 4 4 3 3 5 4 4 6 6 6 6 7 6 7 8 8 8 8 8 9 9 10 9 9 10 11 11 11 10 9 9 10 10 10 10 12 12 11 11 10 12 11 13 15 17 17 17 19 14 12 12 11 12 10 9 10 11 13 14 13 8 1 2 6 14 15 13 13 12 11 8 6 5 5
3 3 4 5 6 5 6 5 3 4 3 3 3 3 4 4 4 5 5 6 6 6 7 8 8 8 8 8 8 9 9 10 9 9 10 11 11 12 11 9 10 10 11 11 11 10 10 11 11 11 11 11 11 13 16 18 17 17 14 11 12 11 12 12 12 11 11 12 11 9 9 9 11 14 20 21 18 14 7 10 11 13 12 7 5
4 4 4 3 3 2 2 1 1 1 1 1 2 3 3 4 5 5 6 7 6 7 8 8 8 8 8 8 8 8 9 10 9 10 11 11 11 10 11 9 10 11 11 11 10 10 10 11 12 12 11 11 11 12 16 16 17 17 15 11 9 10 12 11 11 11 11 10 10 18 15 14 15 14 18 19 17 17 11 11 12 11 11 11 7
2 2 2 0 0 1 2 2 2 2 3 3 3 3 3 4 5 6 6 7 7 8 8 8 8 8 7 8 8 9 9 9 10 11 10 11 11 11 11 10 10 10 11 10 10 10 10 9 10 11 15 14 11 12 15 16 17 17 15 10 9 10 11 11 12 13 12 9 10 15 22 19 15 17 21 19 19 18 11 13 13 11 12 12 10
4 5 4 3 2 4 4 3 4 4 4 4 4 4 4 5 6 5 6 7 8 8 8 8 8 7 7 8 8 9 9 10 11 11 11 11 10 10 11 11 11 11 10 9 10 10 11 11 10 10 10 11 11 11 11 15 15 16 16 10 9 10 10 13 13 11 8 7 10 12 15 19 21 21 20 19 20 20 12 12 12 14 14 14 11
4 3 2 3 2 1 2 3 4 3 3 4 3 4 5 6 6 6 7 8 8 8 8 8 7 7 8 9 8 8 10 10 10 10 11 11 10 10 11 11 13 11 11 10 10 10 10 10 9 10 10 10 10 11 11 13 14 15 17 17 11 13 13 12 11 9 8 9 10 12 9 14 20 21 18 18 19 18 15 13 14 15 17 16 15
2 2 2 1 1 3 4 4 4 4 4 4 3 4 5 6 6 7 9 8 7 8 8 7 7 8 8 8 9 9 9 9 10 10 10 11 10 9 9 11 11 10 10 10 10 9 9 10 9 9 10 11 12 16 11 11 14 15 18 20 11 12 13 11 11 10 9 9 11 10 9 13 19 19 18 17 19 19 19 13 16 15 15 21 16
3 3 2 1 3 4 4 5 5 4 4 4 4 5 6 5 6 8 8 8 8 7 7 7 7 7 8 9 9 10 10 8 9 10 11 12 11 9 11 11 11 10 10 11 10 9 9 9 9 9 9 10 10 10 15 11 13 17 18 19 19 13 15 12 11 10 10 9 8 9 10 13 19 19 18 17 18 19 18 15 15 16 19 19 17
1 2 3 2 3 3 4 4 5 4 4 4 4 6 6 6 8 8 7 7 7 6 6 7 7 8 8 9 9 10 10 10 10 10 11 12 11 11 11 10 9 10 10 10 8 8 8 10 10 9 8 9 8 8 9 13 11 16 16 18 19 18 15 11 10 9 9 9 8 8 8 13 17 18 18 16 15 14 7 14 20 23 23 19 10
3 4 4 2 3 4 5 6 6 5 5 5 4 5 6 7 8 7 7 7 7 6 6 7 7 7 8 9 9 9 10 10 10 9 11 11 11 10 10 9 8 8 9 10 9 8 8 9 9 9 8 7 7 7 7 9 12 13 15 16 17 19 15 15 12 9 8 8 8 9 10 11 11 12 13 8 7 7 12 19 21 23 20 11 11
3 4 5 4 4 4 4 5 6 5 5 5 5 5 7 8 8 7 7 6 5 6 6 7 7 7 8 9 9 10 10 10 10 9 9 9 8 9 9 9 7 8 9 10 9 7 8 8 8 7 7 7 6 6 7 6 7 12 12 15 17 16 16 14 15 10 7 10 11 11 15 18 18 14 11 10 8 11 19 17 14 11 6 8 9
4 5 4 5 4 5 5 5 6 6 6 6 6 6 7 7 8 7 6 5 5 5 6 7 8 8 8 8 9 8 9 10 9 9 8 8 8 8 9 8 7 8 9 9 9 8 8 8 8 7 7 6 5 6 6 6 5 6 6 8 9 10 14 14 9 6 9 8 12 12 11 11 12 15 16 18 20 21 16 13 12 12 9 8 8
4 5 5 4 4 4 5 6 7 7 7 7 7 7 8 7 6 5 4 4 5 5 6 7 8 8 7 8 8 13 12 9 10 10 10 9 7 6 7 7 5 6 7 8 8 8 7 6 6 6 6 6 6 5 6 6 5 6 6 6 7 7 5 6 7 5 7 10 9 12 13 12 13 14 13 12 11 10 11 11 10 10 10 10 13
6 6 5 4 4 5 6 6 7 7 7 7 7 7 7 6 4 4 4 4 6 6 7 7 8 7 8 8 8 8 8 9 9 10 9 7 7 7 6 7 5 5 5 6 7 9 9 8 6 6 5 5 5 6 7 6 8 9 9 7 6 6 7 7 11 14 10 10 10 10 11 11 12 13 12 11 10 10 9 9 11 11 10 10 8
5 4 4 4 5 5 6 7 7 7 7 7 7 7 6 4 3 4 5 6 7 7 7 7 7 7 7 8 8 8 8 8 8 9 10 9 6 9 6 4 5 6 8 6 6 6 6 6 8 5 3 6 6 6 6 11 11 11 9 12 12 13 12 11 15 19 16 10 9 12 11 12 11 11 12 13 12 11 11 10 8 9 11 10 9
5 5 6 6 6 6 6 7 7 6 6 6 7 7 6 4 3 4 5 6 6 7 7 7 7 7 8 9 8 8 8 8 8 9 8 8 9 5 10 9 6 4 5 7 6 6 8 8 6 4 1 5 3 7 9 8 6 8 11 14 16 17 18 19 19 14 10 12 11 11 9 10 11 12 12 11 11 12 11 11 11 10 9 10 9
Wind_Direction
228 222 212 189 195 166 166 137 131 109 109 89 100 120 154 190 193 197 194 191 184 182 180 184 193 202 208 206 209 211 213 217 221 220 219 224 230 235 238 233 219 217 213 205 207 210 212 213 213 224 226 224 219 218 229 252 246 230 218 217 226 244 258 218 232 185 270 307 300 289 297 271 222 219 219 218 215 220 213 203 214 204 209 209 211
231 220 208 189 176 138 138 133 120 118 158 124 133 133 117 124 182 176 162 186 189 186 185 189 192 192 193 201 205 209 212 212 220 217 216 224 229 232 231 221 213 203 199 198 204 205 211 216 217 220 219 223 223 215 218 240 258 255 226 236 231 208 229 210 217 127 303 233 304 322 316 304 270 208 219 222 217 218 213 214 213 210 207 209 209
196 205 213 215 163 157 154 148 138 167 157 175 167 130 119 111 113 113 158 177 192 193 188 195 200 205 199 202 201 212 236 222 229 234 227 228 230 219 213 204 198 199 194 192 198 208 215 215 221 220 222 223 233 238 224 234 237 242 232 212 235 269 224 229 206 168 223 200 172 344 298 325 325 340 232 210 213 215 208 216 213 216 214 207 202
197 196 210 222 180 174 172 167 189 152 147 139 175 162 146 140 139 127 122 161 184 189 185 188 180 139 78 104 74 149 214 259 291 290 278 268 259 252 221 205 197 194 193 193 200 206 209 218 224 224 226 221 221 236 244 239 227 236 230 218 182 217 227 253 217 184 194 171 298 205 225 187 296 291 295 290 201 197 208 213 211 214 220 213 194
196 204 205 203 202 203 196 194 183 182 206 176 155 163 166 161 161 149 145 146 159 170 157 143 112 90 80 51 38 22 347 332 306 273 247 242 243 213 216 195 203 207 197 196 199 204 207 213 218 225 225 222 218 226 238 243 238 226 214 203 193 198 234 239 262 215 214 186 186 278 304 293 231 250 328 286 307 304 209 214 219 216 216 212 204
190 198 201 200 202 210 208 210 198 208 209 213 189 171 154 167 160 155 147 144 152 156 156 152 163 158 149 162 197 212 229 227 225 223 229 227 224 221 203 197 199 207 208 210 211 211 213 215 216 220 224 224 220 224 233 244 245 236 224 209 211 208 207 219 253 252 224 201 197 201 194 229 273 282 13 286 305 230 249 232 207 215 211 209 209
206 201 198 198 213 206 214 206 207 205 214 213 203 187 175 158 160 166 163 167 162 167 167 162 168 175 181 192 199 203 215 232 231 227 225 231 223 230 225 209 204 208 214 211 214 215 216 217 217 220 225 226 224 225 231 235 238 235 228 217 220 209 192 221 231 244 256 247 222 221 225 228 230 256 256 220 307 310 305 234 230 228 222 218 214
195 199 199 202 199 196 203 209 206 208 208 209 213 205 187 189 162 165 173 178 179 169 178 179 180 189 195 207 211 217 218 230 228 235 234 230 230 229 228 233 225 217 223 222 218 218 217 220 218 222 226 227 223 224 229 232 236 243 231 222 223 211 196 210 230 229 217 255 202 222 238 249 248 236 234 232 227 275 300 310 239 196 257 283 239
190 194 197 199 199 202 200 202 208 207 202 202 209 211 207 207 206 191 187 191 195 180 182 194 196 194 200 205 222 227 229 240 243 244 244 236 242 237 230 230 228 231 230 233 230 224 220 221 219 222 226 229 226 228 229 227 227 230 235 231 224 223 209 212 212 224 215 234 235 250 238 255 265 260 258 229 218 226 272 266 287 11 62 22 358
192 194 191 196 201 199 200 199 203 211 206 200 200 186 178 183 204 207 218 206 199 199 198 202 205 204 202 211 224 240 239 256 248 252 250 247 249 246 236 233 229 230 232 232 236 234 231 226 225 225 226 227 226 228 228 229 227 224 224 224 224 226 221 216 214 223 219 227 219 216 219 240 265 286 272 257 236 207 238 266 269 287 316 310 348
188 191 194 199 203 204 200 201 206 198 193 184 186 191 184 191 197 200 210 201 204 207 208 218 217 214 217 217 224 235 238 245 257 257 251 251 251 252 240 234 230 233 231 233 230 233 234 233 232 230 228 226 226 224 226 227 228 224 224 221 220 222 226 223 223 223 218 224 228 215 222 214 219 232 245 259 259 252 244 267 277 9 158 177 326
176 179 191 193 193 209 206 212 191 190 187 200 203 198 210 208 202 209 224 222 219 219 217 224 220 221 223 224 231 235 234 239 243 253 249 248 251 255 247 241 231 231 229 234 236 233 233 231 230 233 230 227 226 224 226 226 227 225 221 219 224 221 222 224 222 220 219 221 228 227 228 228 225 223 235 230 226 248 221 242 248 88 29 305 229
170 180 180 182 190 202 213 217 184 180 201 201 184 193 200 201 196 197 233 224 226 222 213 225 227 225 221 225 231 234 235 235 242 252 251 247 247 251 247 241 236 236 232 233 232 227 229 229 223 223 227 225 225 222 225 224 226 225 223 220 223 222 220 222 224 222 216 215 221 224 225 227 232 221 223 238 245 238 226 237 246 154 163 224 272
174 178 180 184 196 198 207 204 196 205 221 207 208 212 204 198 195 207 239 187 227 240 233 222 218 223 222 227 234 231 237 237 242 247 252 248 244 247 247 244 239 235 238 234 233 227 224 225 226 226 224 223 221 223 224 222 222 224 224 223 222 222 216 218 226 228 222 220 215 218 221 225 230 218 218 226 245 247 233 214 223 77 105 174 282
173 178 179 187 190 185 191 188 191 208 214 214 222 248 243 218 178 209 250 264 201 205 220 224 225 220 226 236 245 248 251 250 248 248 253 254 248 246 244 243 242 239 237 240 232 229 228 226 224 229 229 227 225 226 229 228 226 226 225 224 224 219 218 219 223 228 228 224 220 217 221 221 221 220 214 230 232 229 218 214 193 145 30 4 248
174 173 177 170 173 172 164 184 203 221 247 194 174 342 360 30 58 43 350 211 202 226 173 190 214 209 217 224 239 243 243 249 256 256 254 250 253 249 248 242 241 244 245 243 240 234 234 231 230 231 232 232 229 228 228 228 222 223 226 222 224 220 221 221 225 225 230 227 223 222 221 226 222 225 225 224 214 210 201 187 186 172 168 206 252
165 159 162 168 180 176 180 195 194 113 93 90 99 115 106 75 55 36 14 5 352 351 355 355 341 305 251 221 221 227 243 252 256 258 258 262 266 267 275 277 280 273 260 245 246 240 241 240 238 236 232 232 232 228 226 225 222 221 221 220 224 223 222 223 222 223 228 225 225 222 221 224 224 224 231 229 214 210 206 193 184 181 181 177 182
162 156 160 179 183 183 188 165 114 108 118 108 108 112 107 96 87 71 51 28 7 6 345 337 336 327 321 319 311 297 286 275 266 265 268 267 264 260 252 255 243 235 256 278 280 267 250 243 243 240 235 230 229 229 225 224 221 221 221 221 224 223 228 228 223 224 224 222 222 222 219 222 220 220 226 228 209 199 204 202 195 190 171 184 177
149 160 183 182 113 68 65 85 88 94 97 91 84 69 66 61 63 65 43 16 356 345 340 335 338 332 323 312 300 292 287 288 288 287 282 271 270 270 260 249 247 234 220 236 241 247 247 244 242 243 239 234 228 226 223 223 219 221 220 222 221 216 222 224 223 219 222 217 217 220 217 220 215 218 224 231 216 197 201 200 187 234 193 160 168
145 119 94 110 115 105 105 102 93 89 89 90 97 97 82 89 61 34 22 15 4 342 329 322 311 303 297 292 289 280 273 270 275 284 286 282 277 273 269 260 253 248 240 236 234 241 247 251 253 252 252 247 235 227 222 221 216 219 218 219 220 215 221 224 225 218 220 215 213 217 216 217 215 213 231 234 213 204 199 195 185 187 190 179 166
129 123 123 110 108 108 103 102 101 96 85 64 63 66 60 47 37 28 9 345 335 317 304 291 295 303 305 298 290 285 279 274 272 271 277 279 279 276 273 271 268 252 238 233 232 235 240 243 246 245 239 251 256 248 231 221 216 217 218 220 222 218 222 228 227 226 223 221 216 219 220 218 185 76 357 344 309 269 214 193 187 178 180 178 174
134 137 126 107 106 101 81 63 63 71 65 63 40 49 33 26 4 356 350 322 297 293 291 293 291 283 280 279 280 276 272 273 271 268 271 278 279 279 276 279 272 258 237 244 240 239 238 236 239 243 249 249 247 258 283 266 236 224 222 221 225 222 224 229 225 227 222 220 212 214 219 209 142 174 186 180 148 27 327 283 186 180 189 186 187
136 134 125 122 126 127 125 110 105 117 126 131 115 90 45 330 290 271 254 265 259 262 267 267 272 276 275 270 270 273 272 271 272 271 270 272 276 273 272 270 268 265 244 241 248 247 245 238 235 238 238 241 248 142 235 291 295 274 265 249 232 223 223 225 224 224 221 216 215 212 212 186 175 179 189 187 178 179 199 227 224 198 191 192 188
110 96 102 120 137 151 132 139 160 167 163 152 169 192 214 223 229 241 253 255 258 251 250 257 264 266 267 270 270 267 270 273 276 275 271 271 273 277 274 270 265 264 264 246 239 247 251 245 240 239 234 230 230 198 199 215 220 186 196 221 226 228 222 220 221 222 221 216 216 216 213 193 178 181 187 188 188 190 200 215 214 199 186 184 182
102 122 150 159 149 153 166 179 182 212 209 204 209 213 216 225 227 232 239 243 246 248 250 255 259 268 272 271 269 268 268 272 274 275 275 275 276 279 278 272 273 272 269 265 252 243 247 246 242 239 237 230 213 199 213 224 228 217 211 219 222 223 223 221 220 221 219 216 214 214 212 196 187 189 188 188 183 190 200 200 207 201 190 181 176
165 177 188 193 200 190 190 201 212 208 207 210 216 218 221 226 232 227 237 247 249 252 251 258 265 270 272 272 272 270 269 270 274 276 276 276 273 271 272 272 269 272 274 270 264 254 245 245 240 239 236 231 209 211 221 230 228 225 222 230 233 236 244 241 231 223 222 218 215 214 213 199 189 191 189 190 186 191 192 192 195 193 188 177 177
192 194 207 211 200 206 210 211 212 210 209 212 214 223 226 230 241 245 242 244 252 256 261 264 266 263 266 267 269 272 271 272 273 272 272 273 269 264 265 271 270 268 271 274 267 262 253 246 241 237 236 229 220 220 220 219 218 212 210 212 217 224 231 236 241 236 224 219 218 219 217 208 197 192 188 188 188 189 189 194 192 188 181 176 175
209 220 217 214 219 218 214 218 222 221 219 219 223 221 224 226 237 248 251 249 254 255 260 262 261 263 259 262 265 269 273 271 269 268 269 270 269 266 263 266 270 270 270 269 269 261 255 246 244 240 238 235 228 228 227 226 225 221 215 214 215 220 224 225 231 234 230 223 219 218 217 213 207 192 192 193 186 188 189 193 193 182 177 174 177
216 222 222 222 222 217 215 219 224 224 221 225 231 239 248 260 253 251 249 250 252 255 261 260 261 260 260 261 265 270 270 272 271 272 272 271 268 263 262 259 262 270 269 267 264 260 254 248 245 239 237 231 227 229 231 227 226 224 219 218 219 225 229 229 231 233 230 226 224 219 215 211 208 199 190 191 188 185 183 190 192 183 178 180 176
217 223 224 224 223 215 213 215 225 223 225 232 242 250 244 234 243 244 250 255 255 259 261 266 264 261 263 267 270 273 275 275 275 272 268 266 266 267 262 263 265 267 270 266 263 260 254 247 250 244 236 234 233 233 230 228 223 223 220 220 220 223 223 226 228 228 230 229 227 223 218 209 206 203 192 189 188 189 186 185 186 185 183 182 179
221 223 228 220 217 214 214 218 226 235 238 235 231 231 228 234 242 250 250 255 253 260 261 261 264 265 269 275 278 277 276 275 273 272 270 267 267 267 270 270 271 269 269 268 261 257 253 247 246 249 243 237 236 235 231 225 228 228 224 220 221 223 220 223 225 222 224 225 225 222 220 216 212 208 191 185 183 191 192 194 187 185 183 179 176
227 232 233 228 221 220 229 246 250 234 221 217 227 229 230 241 243 246 247 250 252 254 258 263 264 272 277 278 277 278 277 274 274 274 272 268 264 264 269 271 272 271 268 267 262 255 252 248 246 245 243 239 238 238 231 225 224 226 229 229 226 226 221 220 221 221 223 222 221 219 218 218 214 208 194 188 181 185 192 195 193 190 187 184 178
230 252 277 330 210 205 206 214 216 215 213 224 215 225 236 237 239 242 247 252 249 251 258 265 270 272 275 276 277 278 277 277 274 271 269 270 266 268 270 272 271 268 271 268 266 263 256 249 245 246 244 239 238 234 230 230 228 225 224 228 232 228 225 222 217 216 218 217 213 212 215 218 218 202 190 191 191 190 192 191 196 197 190 185 187
130 173 173 186 198 201 199 198 207 219 219 230 217 217 230 232 235 249 240 249 255 264 262 266 272 275 276 279 280 279 278 276 272 270 272 272 271 268 268 268 271 272 268 268 268 267 263 255 247 245 247 245 236 235 229 228 229 229 228 227 234 230 225 223 220 213 210 207 202 203 213 216 210 192 215 207 197 188 184 197 215 221 196 198 201
151 150 186 193 198 216 237 266 263 239 235 233 246 242 252 270 249 249 252 259 263 264 268 269 273 277 280 281 281 280 279 276 274 273 274 273 273 274 272 270 268 268 267 267 267 270 266 259 252 245 249 248 245 232 225 225 224 225 228 227 233 236 232 228 222 216 208 202 201 210 216 215 203 194 203 205 196 180 174 189 195 210 208 206 199
195 189 227 223 235 228 228 236 238 229 237 244 254 252 226 247 260 261 272 271 272 276 274 276 276 277 278 278 277 275 273 276 275 275 273 274 274 272 272 272 270 267 263 262 262 260 264 263 257 251 248 251 249 236 228 229 225 221 223 226 225 228 225 225 218 209 204 201 205 211 216 207 187 243 245 229 209 192 176 159 168 195 232 234 220
217 195 215 218 213 215 225 223 228 237 257 252 233 223 234 268 289 281 280 282 281 276 274 274 276 276 277 276 270 270 275 277 278 279 278 277 277 277 274 268 267 266 267 265 262 258 259 257 256 251 245 248 250 238 229 228 225 218 216 218 217 221 224 221 214 211 208 209 207 200 189 177 185 200 205 204 199 195 165 156 164 185 194 204 190
206 229 239 238 258 277 300 257 229 212 211 233 243 248 264 280 283 286 290 286 278 272 272 273 273 274 274 275 274 274 277 278 277 277 277 277 275 274 273 269 266 269 269 268 265 261 255 251 251 251 246 249 250 243 232 226 222 218 213 214 202 214 229 227 223 219 220 213 203 200 193 191 199 206 209 207 196 190 172 167 179 173 173 182 177
178 172 188 125 60 110 101 81 63 346 297 302 296 279 277 283 284 286 283 280 275 274 275 275 277 276 277 280 280 277 274 273 275 275 276 278 278 278 278 275 269 267 268 270 268 263 260 255 254 256 257 252 251 250 237 227 220 216 214 208 201 210 220 228 226 224 219 207 208 210 204 200 201 208 208 200 192 192 170 173 180 176 175 177 174
41 61 91 107 75 43 17 1 330 303 298 311 310 297 285 283 285 284 284 279 278 276 276 277 276 272 274 279 276 277 276 276 278 280 280 278 279 281 279 277 273 271 270 268 269 264 260 258 254 253 252 250 250 250 245 228 215 214 203 194 194 203 210 219 223 225 204 195 209 219 216 199 202 208 204 193 190 188 170 182 177 182 180 181 167
89 91 85 64 45 37 301 282 283 283 295 296 300 304 291 285 283 286 282 278 278 280 281 280 276 275 277 276 276 274 276 278 278 279 281 281 279 278 280 281 280 277 271 269 267 264 256 256 254 252 252 251 249 251 249 226 212 205 197 194 195 201 207 213 218 218 202 199 206 214 210 199 201 208 205 192 186 182 170 181 182 185 189 166 152
68 77 92 111 307 313 309 306 296 280 280 285 288 287 285 284 286 281 279 279 282 284 285 282 280 278 277 277 278 278 276 278 280 281 283 282 279 279 285 288 284 279 274 271 271 269 268 267 264 252 245 246 245 243 245 225 211 198 201 200 197 203 204 209 215 220 208 209 212 212 211 199 203 209 209 191 182 184 177 181 196 195 156 146 149
22 1 319 2 338 321 305 294 292 292 290 289 288 286 286 288 284 281 284 287 286 288 287 282 280 280 283 285 284 283 285 285 285 285 285 285 286 287 285 281 279 277 273 272 270 267 261 261 260 254 246 242 239 240 232 225 205 200 204 203 204 201 199 204 210 211 209 211 211 213 213 197 193 200 203 193 184 188 184 185 163 131 140 143 139
301 289 288 318 296 282 291 299 299 294 295 293 291 288 289 291 287 286 288 288 288 285 286 288 287 288 291 290 289 289 288 288 288 290 289 286 285 284 283 280 280 279 283 278 268 262 259 260 263 256 244 238 236 233 226 221 205 201 205 204 208 211 196 206 211 216 212 208 203 204 201 188 187 188 200 196 184 176 158 132 137 138 137 140 134
318 306 294 295 310 315 312 309 307 305 301 295 288 286 287 288 286 288 287 288 288 292 299 295 293 292 292 292 292 291 290 291 292 292 292 292 294 291 287 288 289 289 287 284 273 260 254 257 257 253 244 233 228 224 222 220 209 201 203 206 209 211 209 201 208 218 211 207 192 177 185 181 147 161 190 156 116 117 120 140 138 139 137 131 137
331 331 335 322 317 314 308 304 304 304 300 297 295 285 285 280 285 286 286 290 295 300 301 297 294 293 291 293 293 294 292 291 292 289 287 292 288 284 289 295 297 297 297 290 275 261 259 259 259 253 251 246 235 224 223 220 217 213 203 207 208 210 211 205 205 207 171 139 138 121 107 113 132 145 121 115 114 114 112 99 84 80 100 118 123
320 306 307 315 317 318 316 313 309 308 307 298 291 284 274 277 282 290 300 303 297 295 296 296 294 294 293 292 293 291 295 298 299 297 291 288 294 297 295 294 299 307 302 300 289 274 262 262 268 271 265 255 233 223 223 223 204 200 193 199 207 218 221 217 204 93 109 113 128 132 132 128 122 127 124 122 124 123 119 114 108 103 89 70 54
303 298 301 309 318 313 314 314 310 306 301 295 290 289 288 290 297 302 302 301 296 292 292 290 290 289 290 291 289 297 302 300 300 298 298 300 299 292 287 281 296 292 300 298 295 292 282 268 266 259 255 241 229 228 225 223 209 194 190 173 184 193 154 123 128 131 116 126 120 115 111 109 107 108 117 117 117 118 122 123 117 111 117 120 117
322 318 331 333 323 324 316 316 308 301 298 297 295 292 295 298 296 297 300 300 293 293 294 286 283 285 288 291 289 288 290 294 295 295 286 271 280 292 272 275 259 282 323 306 290 286 286 287 258 254 259 253 235 229 231 209 206 197 179 158 161 150 140 141 142 135 121 115 118 115 114 116 119 118 116 115 109 108 107 109 113 116 117 117 106
326 330 344 338 333 322 316 310 302 299 299 299 298 297 296 292 292 305 306 303 301 298 291 287 287 286 290 293 292 289 288 288 291 292 299 301 254 227 223 210 290 326 338 319 249 254 288 303 291 251 230 238 251 243 171 175 191 192 180 159 143 142 145 139 142 135 131 120 120 128 130 128 126 124 123 123 123 118 116 111 112 109 113 117 124
342 350 343 336 326 319 313 306 303 306 306 306 305 303 301 295 305 303 304 297 297 294 292 289 291 289 290 292 290 288 286 284 286 291 296 299 310 283 197 199 216 280 344 348 339 298 292 284 293 238 292 321 244 159 166 185 146 124 123 124 126 127 126 131 127 112 111 128 133 125 123 121 128 127 123 120 120 120 121 122 123 121 119 121 122